This is the latest recevied weather packets stored in our database for station/object EB2BAG-11. If no packets are shown the sender has not sent any weather packets the latest 10 day(s).
| Time | Temp. | Humidity | Pressure | Rain* | Wind** | Luminosity | Snow |
|---|---|---|---|---|---|---|---|
| 1777835756 | 19.44° C | 80% | 1012.2 hPa | - | - | - | - |
| 1777834556 | 18.89° C | 82% | 1011.9 hPa | - | - | - | - |
| 1777833356 | 19.44° C | 79% | 1011.7 hPa | - | - | - | - |
| 1777832156 | 20° C | 77% | 1011.3 hPa | - | - | - | - |
| 1777830955 | 19.44° C | 77% | 1011.3 hPa | - | - | - | - |
| 1777829755 | 19.44° C | 77% | 1011.1 hPa | - | - | - | - |
| 1777828555 | 20° C | 75% | 1011.1 hPa | - | - | - | - |
| 1777827355 | 20° C | 75% | 1011.3 hPa | - | - | - | - |
| 1777826155 | 20.56° C | 72% | 1010.9 hPa | - | - | - | - |
| 1777824955 | 20° C | 72% | 1011.1 hPa | - | - | - | - |
| 1777823755 | 18.89° C | 73% | 1011.4 hPa | - | - | - | - |
| 1777822555 | 18.89° C | 70% | 1011.8 hPa | - | - | - | - |
| 1777821354 | 18.33° C | 74% | 1012.3 hPa | - | - | - | - |
| 1777820154 | 18.33° C | 71% | 1013.1 hPa | - | - | - | - |
| 1777818954 | 18.33° C | 70% | 1013.3 hPa | - | - | - | - |
| 1777817754 | 18.89° C | 69% | 1013.5 hPa | - | - | - | - |
| 1777816554 | 18.89° C | 75% | 1013.7 hPa | - | - | - | - |
| 1777815354 | 18.33° C | 78% | 1013.6 hPa | - | - | - | - |
| 1777814154 | 18.33° C | 73% | 1013.5 hPa | - | - | - | - |
| 1777812954 | 20° C | 68% | 1013.2 hPa | - | - | - | - |
| 1777811754 | 21.11° C | 57% | 1013 hPa | - | - | - | - |
| 1777810554 | 20.56° C | 56% | 1012.9 hPa | - | - | - | - |
| 1777809354 | 21.11° C | 56% | 1012.8 hPa | - | - | - | - |
| 1777808153 | 21.11° C | 56% | 1013.1 hPa | - | - | - | - |
| 1777806953 | 21.11° C | 56% | 1013.3 hPa | - | - | - | - |
* Rain since midnight (hover to see other rain measurements)
** Current wind speed in m/s (hover to see current wind gust speed)